Flag for U.S.A. Weather past 2 weeks in Anchorage, Alaska, U.S.A.

Now
50 °F

Overcast.


Feels Like: 50 °F
Forecast: 51 / 55 °F
Wind: No wind

Location: Lake Hood Seaplane

Current Time: Sep 17, 2014 at 6:19:03 AM

Latest Report: Sep 17, 2014 at 5:53 AM


Visibility: 10 mi

Pressure: 29.46 "Hg

Humidity: 83%

Dew point: 45 °F

Location of AnchorageLocation

Historic Weather in Anchorage — Graph

°F

Anchorage temperature yesterday

Maximum temperature yesterday: 56 °F (at 3:53 PM)
Minimum temperature yesterday: 50 °F (at 1:53 AM)
Average temperature yesterday: 52 °F

Past Weeks' High & Low Weather Summary

 TemperatureHumidityPressure
High65 °F (Sep 11, 3:53 PM)94% (Sep 5, 6:01 PM)30.15 "Hg (Sep 5, 6:01 PM)
Low44 °F (Sep 7, 4:53 AM)36% (Sep 14, 8:53 PM)29.48 "Hg (Sep 17, 4:53 AM)
Average54 °F78%29.88 "Hg
* Reported Sep 2 4:53 AM — Sep 17 4:53 AM, Anchorage, Weather by CustomWeather, © 2014

Note: Actual official high and low records may vary slightly from our data, if they occured in-between our weather recording intervals... More about our weather records

Advertising

Anchorage weather history for previous 24 hours

 ConditionsComfort  
Time TempWeatherWind HumidityBarometerVisibility
4:53 AM
Sep 17
49 °FPassing clouds.6 mph84%29.48 "Hg10 mi
3:53 AM51 °FMostly cloudy.6 mph80%29.53 "Hg10 mi
2:53 AM50 °FOvercast.No wind86%29.55 "Hg10 mi
1:53 AM51 °FMostly cloudy.8 mph83%29.59 "Hg10 mi
12:53 AM51 °FLight rain. Overcast.6 mph86%29.61 "Hg10 mi
11:53 PM
Sep 16
51 °FLight rain. Mostly cloudy.3 mph86%29.63 "Hg10 mi
10:53 PM52 °FLight rain. Overcast.3 mph89%29.64 "Hg10 mi
9:53 PM53 °FOvercast.No wind83%29.65 "Hg10 mi
8:53 PM52 °FLight rain. Overcast.No wind86%29.66 "Hg10 mi
7:53 PM52 °FLight rain. Mostly cloudy.No wind86%29.66 "Hg10 mi
6:53 PM55 °FLight rain. Mostly cloudy.No wind77%29.67 "Hg10 mi
5:53 PM56 °FOvercast.No wind77%29.69 "Hg10 mi
4:53 PM56 °FOvercast.No wind75%29.70 "Hg10 mi
3:53 PM56 °FOvercast.3 mph75%29.72 "Hg10 mi
2:53 PM55 °FOvercast.5 mph69%29.73 "Hg10 mi
1:53 PM55 °FOvercast.No wind72%29.74 "Hg10 mi
12:53 PM54 °FMostly cloudy.3 mph77%29.75 "Hg10 mi
11:53 AM54 °FOvercast.No wind74%29.75 "Hg10 mi
10:53 AM52 °FMostly cloudy.No wind83%29.74 "Hg10 mi
9:53 AM50 °FOvercast.3 mph83%29.74 "Hg10 mi
8:53 AM50 °FMostly cloudy.No wind83%29.73 "Hg10 mi
7:53 AM50 °FMostly cloudy.3 mph83%29.72 "Hg10 mi
6:53 AM50 °FMostly cloudy.No wind83%29.72 "Hg10 mi
Weather by CustomWeather, © 2014

See weather overviewHow to use our weather pages